STARLINK-2616, 48695

Orbit data source: Space-Track

STARLINK-2616, 48695 is a payload satellite owned by SpaceX/Seattle (US) in LEO that was launched on Wed, 26 May 2021 UTC via an FALCON 9 launch vehicle from the Air Force Eastern Test Range (AFETR). Payload-class satellites include a variety of spacecraft equipped with specific instruments for various scientific and technological missions. These include communications satellites like Starlink; space stations such as the ISS; scientific satellites like the Hubble; Earth observation satellites from companies like Planet Labs, Umbra, and HawkEye 360; GPS; miniature CubeSats for education and research; and military/defense satellites.

Loading next visibility...
Identifier
48695, 2021-044BK
Orbit
LEO
Country
Flag of USUS
Related business
Manufacturer
SpaceX/Seattle
Mission
Operational Commercial Communications
Bus & Motor
STARLINK, Unknown motor
Mass
260 kg wet, ~248 kg dry
Launch date (UTC)
2021-05-26 (5 years ago)
Launch vehicle
FALCON 9
Launch site
Air Force Eastern Test Range (AFETR)
Object type
Payload
Rocket body
Debris
Shape & HBR
Box + 1 Pan, 10.1 m
Radar Cross Section
13.562 m², Large (>1 m²)

Expand to show TLE details & history
Last TLE update: 17 hours ago

TLE from 17 hours ago
0 STARLINK-2616
1 48695U 21044BK  25349.32829185  .00003279  00000-0  23895-3 0  9995
2 48695  53.0542 105.3813 0001084  80.4783 279.6328 15.06393198251489
Epoch: 2025-12-15T07:52Z
TLE epoch observation values (Epoch: 2025-12-15T07:52:44.415Z)
Latitude
-0.00008°
Longitude
-97.03225°
Altitude
547.986 km
Speed
7.589 km/s
True Right ascension
07h 01m 31s
True Declination
0° 00' 00"
Sunlit
Object was in full shadow at epoch
Visualization orbit readout
Latitude
Unknown
Longitude
Unknown
Altitude
Unknown
Speed
Unknown
Apparent Right ascension
Unknown
Apparent Declination
Unknown
Sunlit
N/A
Visualization observer readout
Local Sidereal Time
23:02:00
Azimuth
Unknown
Elevation
Unknown
Doppler factor
Unknown
Orbital elements
Apogee altitude
548.254 km
Perigee altitude
546.752 km
Semi-major axis
6,925.64 km
Eccentricity
0.00011
Inclination
53.0542°
RAAN
105.3813°
Arg. of periapsis
80.4783°
True anomaly
279.62055°
Mean anomaly
279.6328°
Eccentric anomaly
279.62668°
Mean motion
3.76577 °/min
Orbital period
95.6 mins
BSTAR
0.00023895
Loading maneuver chart data...
Computing Atmospheric mass density...
Loading historical data...
Loading historical data...
Loading historical data...
Loading historical data...
Loading historical data...
Loading historical data...
Loading historical data...

Documentation

Showing up to 5 results
|